Weather History for Honolulu, HI

Change the Weather History Date:

Friday, December 2, 2011

  Actual Average Record
Temperature  
Mean Temperature 77 °F 76 °F  
Max Temperature 85 °F 82 °F 87 °F (1983)
Min Temperature 68 °F 70 °F 59 °F (1956)
Degree Days  
Heating Degree Days 0 0  
Month to date heating degree days 0 0  
Since 1 July heating degree days 0 0  
Cooling Degree Days 12 11  
Month to date cooling degree days 23 22  
Year to date cooling degree days 4618 4348  
Growing Degree Days 27 (Base 50)    
Moisture  
Dew Point 68 °F    
Average Humidity 76    
Maximum Humidity 100    
Minimum Humidity 51    
Precipitation  
Precipitation 0.00 in 0.07 in 0.64 in (2008)
Month to date precipitation T 0.15  
Year to date precipitation 14.54 14.01  
Snow  
Snow 0.00 in - - ()
Month to date snowfall 0.0  
Since 1 July snowfall 0.0  
Snow Depth 0.00 in    
Sea Level Pressure  
Sea Level Pressure 30.02 in    
Wind  
Wind Speed 4 mph (ENE)    
Max Wind Speed 17 mph    
Max Gust Speed 23 mph    
Visibility 10 miles    
Events      
T = Trace of Precipitation, MM = Missing Value Source: NWS Daily Summary

Daily Weather History Graph

Daily Weather History Graph

Search for Another Location

Airport:

Trip Planner

Search our weather history database for the weather conditions in past years. The results will help you decide how hot, cold, wet, or windy it might be!

Date:

Astronomy

Dec. 02, 2011 Rise Set
Actual Time 6:53 AM HST 5:48 PM HST
Civil Twilight 6:29 AM HST 6:12 PM HST
Nautical Twilight 6:01 AM HST 6:40 PM HST
Astronomical Twilight 5:34 AM HST 7:07 PM HST
Moon 12:49 PM HST (12/2) 12:22 AM HST (12/2)
Length of Visible Light 11h 43m
Length of Day
10h 55m
First Quarter, 55% of the Moon is Illuminated
Dec 2
First Quarter
Dec 10
Full
Dec 17
Last Quarter
Dec 24
New
Dec 31
First Quarter

Hourly Weather History & Observations

Time (HST) Temp. Heat Index Dew Point Humidity Pressure Visibility Wind Dir Wind Speed Gust Speed Precip Events Conditions
12:53 AM 72.0 °F - 68.0 °F 87% 30.02 in 10.0 mi Calm Calm - N/A   Mostly Cloudy
1:53 AM 72.0 °F - 69.1 °F 91% 30.00 in 10.0 mi Calm Calm - N/A   Scattered Clouds
2:53 AM 70.0 °F - 66.9 °F 90% 29.99 in 10.0 mi Calm Calm - N/A   Scattered Clouds
3:53 AM 71.1 °F - 68.0 °F 90% 30.00 in 10.0 mi Calm Calm - N/A   Scattered Clouds
4:53 AM 72.0 °F - 68.0 °F 87% 30.00 in 10.0 mi Calm Calm - N/A   Scattered Clouds
5:53 AM 71.1 °F - 69.1 °F 93% 30.02 in 10.0 mi Calm Calm - N/A   Partly Cloudy
6:53 AM 70.0 °F - 69.1 °F 97% 30.03 in 10.0 mi North 4.6 mph - N/A   Partly Cloudy
7:53 AM 73.0 °F - 69.1 °F 87% 30.04 in 10.0 mi Calm Calm - N/A   Scattered Clouds
8:53 AM 75.9 °F - 68.0 °F 76% 30.04 in 10.0 mi East 5.8 mph - N/A   Scattered Clouds
9:53 AM 77.0 °F - 68.0 °F 74% 30.06 in 10.0 mi South 5.8 mph - N/A   Scattered Clouds
10:53 AM 77.5 °F - 68.0 °F 72% 30.04 in 10.0 mi Calm Calm - N/A   Scattered Clouds
11:53 AM 77.7 °F - 67.6 °F 71% 30.03 in 10.0 mi South 4.6 mph - N/A   Scattered Clouds
12:53 PM 84.9 °F 87.1 °F 66.0 °F 53% 29.99 in 10.0 mi NNE 10.4 mph 16.1 mph N/A   Scattered Clouds
1:53 PM 84.9 °F 86.6 °F 64.9 °F 51% 29.98 in 10.0 mi ENE 12.7 mph - N/A   Scattered Clouds
2:53 PM 82.9 °F 84.6 °F 64.9 °F 54% 29.98 in 10.0 mi NE 13.8 mph 19.6 mph N/A   Scattered Clouds
3:53 PM 82.0 °F 84.1 °F 66.0 °F 58% 29.98 in 10.0 mi NE 16.1 mph - N/A   Scattered Clouds
4:53 PM 80.1 °F 82.3 °F 66.9 °F 64% 29.99 in 10.0 mi NE 15.0 mph 20.7 mph N/A   Scattered Clouds
5:53 PM 79.0 °F - 68.0 °F 69% 30.00 in 10.0 mi East 8.1 mph - N/A   Scattered Clouds
6:53 PM 78.1 °F - 69.1 °F 74% 30.02 in 10.0 mi East 9.2 mph - N/A   Partly Cloudy
7:53 PM 77.0 °F - 69.1 °F 76% 30.04 in 10.0 mi East 9.2 mph - N/A   Partly Cloudy
8:53 PM 75.9 °F - 69.1 °F 79% 30.04 in 10.0 mi East 10.4 mph - N/A   Partly Cloudy
9:53 PM 75.9 °F - 69.1 °F 79% 30.05 in 10.0 mi ENE 9.2 mph - N/A   Partly Cloudy
10:53 PM 75.9 °F - 68.0 °F 76% 30.05 in 10.0 mi NNE 6.9 mph - N/A   Scattered Clouds
11:53 PM 75.0 °F - 68.0 °F 79% 30.04 in 10.0 mi Calm Calm - N/A   Mostly Cloudy